M I D A S
Marine Information and Data Acquisition System
Tripno 1697 of the Zeeleeuw from 2009-05-20 04:33:05 to 2009-05-20 14:30:48
Back to CruiseResearch ActivitiesStationsMapUnderway DataData graphs

EquipmentUnitsComments
TimeDGPSUTC
LatitudeDGPSDM.mWGS84
LongitudeDGPSDM.mWGS84
SpeedMeteo Stationm/sRelative wind speed
DirectionMeteo StationdegRelative wind direction
TemperatureMeteo Stationdeg CelciusAir temperature
PressureMeteo StationPaAtmospheric pressure
HumidityMeteo Station%Relative humidity
Missing or incorrect values are displayed as -999
Metereological data collected by the RV Zeeleeuw from 2009-05-20 04:02:50 to 2009-05-20 14:39:44
                                                                                    Next 1000 lines
Time Latitude Longitude Speed Direction Temperature Pressure Humidity
2009-05-20 04:02:59 51°13.664 2°55.96 1.2 9 10.7 102110 84
2009-05-20 04:03:04 51°13.664 2°55.96 1.2 2 10.7 102110 84
2009-05-20 04:03:09 51°13.663 2°55.96 0.9 3 10.7 102100 84
2009-05-20 04:03:14 51°13.663 2°55.959 1.4 4 10.7 102100 84
2009-05-20 04:03:19 51°13.664 2°55.959 1.3 16 10.7 102110 84
2009-05-20 04:03:24 51°13.664 2°55.959 1.3 11 10.7 102110 84
2009-05-20 04:03:29 51°13.664 2°55.959 1 7 10.7 102110 84
2009-05-20 04:03:34 51°13.664 2°55.959 0.7 10 10.7 102110 84
2009-05-20 04:03:38 51°13.664 2°55.959 0.6 9 10.7 102110 84
2009-05-20 04:03:43 51°13.664 2°55.96 0.7 358 10.7 102110 84
2009-05-20 04:03:48 51°13.664 2°55.959 0.7 358 10.7 102100 84
2009-05-20 04:03:53 51°13.664 2°55.959 0.6 358 10.7 102100 84
2009-05-20 04:03:58 51°13.663 2°55.959 0.8 359 10.7 102110 84
2009-05-20 04:04:02 51°13.663 2°55.959 0.5 350 10.7 102110 84
2009-05-20 04:04:08 51°13.664 2°55.961 0.3 351 10.7 102110 84
2009-05-20 04:04:13 51°13.664 2°55.961 0.3 350 10.7 102110 84
2009-05-20 04:04:18 51°13.664 2°55.961 0.4 351 10.7 102110 84
2009-05-20 04:04:22 51°13.664 2°55.961 0.4 356 10.7 102110 84
2009-05-20 04:04:28 51°13.664 2°55.961 1.1 3 10.7 102100 84
2009-05-20 04:04:33 51°13.664 2°55.961 1.1 13 10.7 102100 84
2009-05-20 04:04:38 51°13.664 2°55.961 1 16 10.7 102110 84
2009-05-20 04:04:42 51°13.664 2°55.961 1.2 357 10.7 102110 84
2009-05-20 04:04:48 51°13.664 2°55.961 0.9 9 10.7 102110 84
2009-05-20 04:04:53 51°13.663 2°55.96 1.7 355 10.7 102110 84
2009-05-20 04:04:58 51°13.663 2°55.96 1.7 360 10.7 102110 84
2009-05-20 04:05:02 51°13.663 2°55.96 1.9 359 10.7 102110 84
2009-05-20 04:05:06 51°13.663 2°55.96 1.7 2 10.7 102110 84
2009-05-20 04:05:13 51°13.663 2°55.96 1.5 7 10.7 102110 84
2009-05-20 04:05:18 51°13.663 2°55.96 1.1 8 10.7 102110 84
2009-05-20 04:05:23 51°13.663 2°55.96 1 25 10.7 102110 84
2009-05-20 04:05:27 51°13.663 2°55.96 0.9 21 10.7 102110 84
2009-05-20 04:05:33 51°13.663 2°55.96 0.9 17 10.7 102110 84
2009-05-20 04:05:38 51°13.663 2°55.96 1.4 3 10.7 102110 84
2009-05-20 04:05:43 51°13.663 2°55.96 1.4 11 10.7 102110 84
2009-05-20 04:05:47 51°13.663 2°55.96 1.3 14 10.7 102110 84
2009-05-20 04:05:53 51°13.663 2°55.96 1.1 13 10.7 102110 84
2009-05-20 04:05:58 51°13.663 2°55.96 1.3 360 10.7 102110 84
2009-05-20 04:06:02 51°13.663 2°55.96 1.4 1 10.7 102110 84
2009-05-20 04:06:07 51°13.663 2°55.96 1.5 359 10.7 102110 84
2009-05-20 04:06:13 51°13.663 2°55.96 1.5 358 10.7 102110 84
2009-05-20 04:06:18 51°13.663 2°55.96 1.5 357 10.7 102110 84
2009-05-20 04:06:22 51°13.663 2°55.96 1.8 2 10.7 102110 84
2009-05-20 04:06:28 51°13.663 2°55.96 2.1 1 10.7 102110 84
2009-05-20 04:06:33 51°13.663 2°55.96 1.5 10 10.7 102110 84
2009-05-20 04:06:38 51°13.663 2°55.96 1.4 6 10.7 102110 84
2009-05-20 04:06:42 51°13.663 2°55.96 1.9 9 10.7 102110 84
2009-05-20 04:06:48 51°13.663 2°55.96 1.6 4 10.7 102110 84
2009-05-20 04:06:53 51°13.663 2°55.96 2 7 10.7 102110 84
2009-05-20 04:06:58 51°13.663 2°55.96 2.4 11 10.7 102110 84
2009-05-20 04:07:02 51°13.663 2°55.96 1.9 30 10.7 102110 84
2009-05-20 04:07:07 51°13.663 2°55.96 1.4 2 10.7 102110 84
2009-05-20 04:07:13 51°13.663 2°55.96 1.4 2 10.7 102110 84
2009-05-20 04:07:18 51°13.663 2°55.96 1.6 2 10.7 102110 84
2009-05-20 04:07:22 51°13.663 2°55.96 1.1 349 10.7 102110 84
2009-05-20 04:07:26 51°13.663 2°55.96 1.3 353 10.7 102110 84
2009-05-20 04:07:33 51°13.663 2°55.96 1.2 357 10.7 102110 84
2009-05-20 04:07:38 51°13.663 2°55.96 1.3 1 10.7 102110 84
2009-05-20 04:07:43 51°13.663 2°55.96 1.4 22 10.7 102110 84
2009-05-20 04:07:48 51°13.663 2°55.959 2.2 7 10.7 102110 84
2009-05-20 04:07:53 51°13.663 2°55.959 1 5 10.7 102110 84
2009-05-20 04:07:58 51°13.663 2°55.959 0.8 11 10.7 102110 84
2009-05-20 04:08:03 51°13.663 2°55.959 1.1 4 10.7 102110 84
2009-05-20 04:08:07 51°13.662 2°55.959 1.1 8 10.7 102110 84
2009-05-20 04:08:13 51°13.662 2°55.959 1.2 6 10.7 102110 84
2009-05-20 04:08:18 51°13.662 2°55.959 1.2 349 10.7 102110 84
2009-05-20 04:08:23 51°13.662 2°55.959 1.2 356 10.7 102110 84
2009-05-20 04:08:27 51°13.662 2°55.959 1 7 10.7 102110 84
2009-05-20 04:08:33 51°13.662 2°55.959 1.2 9 10.7 102110 84
2009-05-20 04:08:38 51°13.662 2°55.959 1.5 349 10.7 102110 84
2009-05-20 04:08:42 51°13.662 2°55.96 1.2 3 10.7 102110 84
2009-05-20 04:08:47 51°13.663 2°55.96 1.3 10 10.7 102110 84
2009-05-20 04:08:53 51°13.662 2°55.96 1.4 2 10.7 102110 84
2009-05-20 04:08:58 51°13.662 2°55.96 1.6 -999 10.7 102110 84
2009-05-20 04:09:02 51°13.662 2°55.96 1.4 3 10.7 102110 84
2009-05-20 04:09:07 51°13.662 2°55.959 1.6 3 10.7 102110 84
2009-05-20 04:09:13 51°13.662 2°55.959 1.5 359 10.7 102110 84
2009-05-20 04:09:18 51°13.662 2°55.959 1.5 3 10.7 102110 84
2009-05-20 04:09:22 51°13.661 2°55.959 1.6 30 10.7 102110 84
2009-05-20 04:09:27 51°13.661 2°55.958 1.5 19 10.7 102110 84
2009-05-20 04:09:33 51°13.661 2°55.958 1.6 18 10.7 102110 84
2009-05-20 04:09:38 51°13.661 2°55.958 1.6 12 10.7 102110 84
2009-05-20 04:09:42 51°13.661 2°55.958 1.2 12 10.7 102110 84
2009-05-20 04:09:47 51°13.661 2°55.959 1 10 10.7 102110 84
2009-05-20 04:09:53 51°13.661 2°55.959 1.3 8 10.7 102110 84
2009-05-20 04:09:58 51°13.661 2°55.959 1.1 9 10.7 102110 84
2009-05-20 04:10:02 51°13.661 2°55.959 1 5 10.7 102110 84
2009-05-20 04:10:07 51°13.662 2°55.959 0.7 5 10.7 102110 84
2009-05-20 04:10:13 51°13.661 2°55.959 0.9 1 10.7 102110 84
2009-05-20 04:10:18 51°13.661 2°55.959 1.3 1 10.7 102110 84
2009-05-20 04:10:22 51°13.661 2°55.959 1.5 6 10.7 102110 84
2009-05-20 04:10:28 51°13.662 2°55.959 1.7 14 10.7 102110 84
2009-05-20 04:10:32 51°13.662 2°55.959 1.5 5 10.7 102110 84
2009-05-20 04:10:38 51°13.662 2°55.959 1.5 11 10.7 102110 84
2009-05-20 04:10:43 51°13.662 2°55.959 1.5 15 10.7 102110 84
2009-05-20 04:10:48 51°13.662 2°55.96 1.1 359 10.7 102110 84
2009-05-20 04:10:53 51°13.662 2°55.96 1.1 354 10.7 102110 84
2009-05-20 04:10:58 51°13.662 2°55.96 0.7 355 10.7 102110 84
2009-05-20 04:11:02 51°13.662 2°55.96 0.8 355 10.7 102110 84
2009-05-20 04:11:08 51°13.662 2°55.961 0.7 356 10.7 102110 84
2009-05-20 04:11:13 51°13.662 2°55.961 0.9 360 10.7 102110 84
2009-05-20 04:11:18 51°13.663 2°55.961 1 -999 10.7 102110 84
2009-05-20 04:11:22 51°13.663 2°55.961 0.9 -999 10.7 102110 84
2009-05-20 04:11:27 51°13.663 2°55.961 1 9 10.7 102110 84
2009-05-20 04:11:33 51°13.663 2°55.96 2.1 3 10.7 102110 84
2009-05-20 04:11:38 51°13.663 2°55.96 2.1 3 10.7 102110 84
2009-05-20 04:11:42 51°13.663 2°55.96 1.9 14 10.7 102110 84
2009-05-20 04:11:47 51°13.664 2°55.96 1.7 17 10.7 102110 84
2009-05-20 04:11:53 51°13.664 2°55.959 1.6 9 10.7 102110 84
2009-05-20 04:11:58 51°13.664 2°55.959 1.7 359 10.7 102110 84
2009-05-20 04:12:03 51°13.663 2°55.959 1.5 360 10.7 102110 84
2009-05-20 04:12:07 51°13.663 2°55.959 1.5 12 10.7 102110 84
2009-05-20 04:12:12 51°13.663 2°55.959 1.6 18 10.7 102110 84
2009-05-20 04:12:18 51°13.662 2°55.959 2 19 10.7 102110 84
2009-05-20 04:12:23 51°13.663 2°55.959 1.7 14 10.7 102110 84
2009-05-20 04:12:28 51°13.663 2°55.959 1.2 19 10.6 102110 84
2009-05-20 04:12:33 51°13.663 2°55.959 1.8 12 10.6 102110 84
2009-05-20 04:12:37 51°13.663 2°55.959 2 15 10.7 102110 84
2009-05-20 04:12:43 51°13.663 2°55.959 1.5 357 10.7 102110 84
2009-05-20 04:12:47 51°13.663 2°55.959 1.3 357 10.6 102110 84
2009-05-20 04:12:53 51°13.663 2°55.959 1.2 4 10.6 102110 84
2009-05-20 04:12:58 51°13.662 2°55.959 1.3 4 10.6 102110 84
2009-05-20 04:13:03 51°13.662 2°55.959 1.3 355 10.6 102110 84
2009-05-20 04:13:07 51°13.662 2°55.959 0.8 359 10.7 102110 84
2009-05-20 04:13:13 51°13.662 2°55.959 0.9 6 10.7 102110 84
2009-05-20 04:13:18 51°13.662 2°55.959 1 5 10.6 102110 84
2009-05-20 04:13:22 51°13.663 2°55.959 1.2 5 10.6 102110 84
2009-05-20 04:13:28 51°13.663 2°55.959 1.7 9 10.6 102110 84
2009-05-20 04:13:33 51°13.663 2°55.959 1.8 9 10.6 102110 84
2009-05-20 04:13:38 51°13.663 2°55.959 2.3 12 10.7 102110 84
2009-05-20 04:13:42 51°13.663 2°55.959 2.1 12 10.7 102110 84
2009-05-20 04:13:47 51°13.663 2°55.959 1.9 12 10.7 102110 84
2009-05-20 04:13:53 51°13.663 2°55.959 1.8 3 10.7 102110 84
2009-05-20 04:13:58 51°13.663 2°55.959 1.6 8 10.6 102110 84
2009-05-20 04:14:02 51°13.663 2°55.959 1.5 1 10.6 102110 84
2009-05-20 04:14:07 51°13.663 2°55.959 1.1 358 10.6 102110 84
2009-05-20 04:14:13 51°13.663 2°55.959 1.2 16 10.6 102110 84
2009-05-20 04:14:18 51°13.663 2°55.959 1.6 347 10.6 102110 84
2009-05-20 04:14:22 51°13.663 2°55.959 1.6 4 10.6 102110 84
2009-05-20 04:14:27 51°13.663 2°55.959 1.8 10 10.6 102110 84
2009-05-20 04:14:33 51°13.664 2°55.959 1.7 9 10.6 102110 84
2009-05-20 04:14:38 51°13.664 2°55.959 1.7 7 10.6 102110 84
2009-05-20 04:14:42 51°13.663 2°55.959 1.5 357 10.6 102110 84
2009-05-20 04:14:48 51°13.663 2°55.959 1.2 360 10.6 102110 84
2009-05-20 04:14:53 51°13.663 2°55.959 1.6 1 10.6 102110 84
2009-05-20 04:14:59 51°13.663 2°55.959 1.3 6 10.6 102110 84
2009-05-20 04:15:03 51°13.663 2°55.958 1.4 11 10.6 102110 84
2009-05-20 04:15:08 51°13.663 2°55.958 1.1 7 10.6 102110 84
2009-05-20 04:15:13 51°13.663 2°55.958 1.2 5 10.6 102110 84
2009-05-20 04:15:18 51°13.663 2°55.959 0.9 5 10.6 102110 84
2009-05-20 04:15:23 51°13.663 2°55.959 1.1 351 10.6 102110 84
2009-05-20 04:15:28 51°13.663 2°55.959 1.3 355 10.6 102110 84
2009-05-20 04:15:33 51°13.663 2°55.959 0.9 358 10.6 102110 84
2009-05-20 04:15:39 51°13.663 2°55.959 0.8 357 10.6 102100 84
2009-05-20 04:15:44 51°13.663 2°55.959 0.9 358 10.6 102100 84
2009-05-20 04:15:49 51°13.663 2°55.959 1.2 349 10.6 102110 84
2009-05-20 04:15:55 51°13.663 2°55.959 1.2 350 10.6 102110 84
2009-05-20 04:15:59 51°13.663 2°55.959 1.1 356 10.6 102100 84
2009-05-20 04:16:05 51°13.663 2°55.959 1.5 20 10.6 102100 84
2009-05-20 04:16:10 51°13.663 2°55.959 1.1 349 10.6 102110 84
2009-05-20 04:16:15 51°13.663 2°55.96 1.1 5 10.6 102110 84
2009-05-20 04:16:21 51°13.663 2°55.96 1.5 5 10.6 102100 84
2009-05-20 04:16:26 51°13.662 2°55.959 1.2 1 10.6 102100 84
2009-05-20 04:16:31 51°13.662 2°55.959 1 6 10.6 102110 84
2009-05-20 04:16:36 51°13.662 2°55.959 1.2 5 10.6 102110 84
2009-05-20 04:16:41 51°13.662 2°55.96 1.7 1 10.6 102110 84
2009-05-20 04:16:46 51°13.663 2°55.96 1 1 10.6 102110 84
2009-05-20 04:16:51 51°13.663 2°55.96 1.1 2 10.6 102110 84
2009-05-20 04:16:55 51°13.663 2°55.96 1.2 8 10.6 102110 84
2009-05-20 04:17:00 51°13.662 2°55.959 1.1 355 10.6 102110 84
2009-05-20 04:17:05 51°13.662 2°55.959 1.4 358 10.6 102110 84
2009-05-20 04:17:10 51°13.662 2°55.959 1.6 357 10.6 102110 84
2009-05-20 04:17:15 51°13.662 2°55.96 1.2 1 10.6 102110 84
2009-05-20 04:17:20 51°13.662 2°55.959 0.9 353 10.6 102110 84
2009-05-20 04:17:26 51°13.662 2°55.959 1.4 3 10.6 102110 84
2009-05-20 04:17:31 51°13.662 2°55.959 1.7 15 10.6 102110 84
2009-05-20 04:17:36 51°13.662 2°55.959 1.4 10 10.6 102110 84
2009-05-20 04:17:41 51°13.662 2°55.959 1.2 10 10.6 102110 84
2009-05-20 04:17:46 51°13.662 2°55.959 1.5 23 10.6 102110 84
2009-05-20 04:17:51 51°13.662 2°55.959 1.6 357 10.6 102100 85
2009-05-20 04:17:56 51°13.662 2°55.959 1.5 19 10.6 102100 85
2009-05-20 04:18:01 51°13.662 2°55.958 1.4 19 10.6 102100 85
2009-05-20 04:18:06 51°13.662 2°55.957 1.5 19 10.6 102100 85
2009-05-20 04:18:11 51°13.663 2°55.955 1.5 24 10.6 102100 85
2009-05-20 04:18:16 51°13.663 2°55.951 1.4 32 10.6 102100 85
2009-05-20 04:18:21 51°13.665 2°55.947 0.9 35 10.6 102100 85
2009-05-20 04:18:26 51°13.666 2°55.943 1.2 34 10.6 102100 85
2009-05-20 04:18:31 51°13.668 2°55.938 1.2 34 10.6 102100 84
2009-05-20 04:18:36 51°13.67 2°55.932 1.2 35 10.6 102100 84
2009-05-20 04:18:41 51°13.671 2°55.926 1.1 34 10.6 102110 84
2009-05-20 04:18:47 51°13.674 2°55.919 0.9 30 10.6 102110 84
2009-05-20 04:18:51 51°13.675 2°55.913 0.9 28 10.6 102100 84
2009-05-20 04:18:56 51°13.677 2°55.906 1 43 10.6 102100 84
2009-05-20 04:19:01 51°13.679 2°55.899 0.7 22 10.6 102100 84
2009-05-20 04:19:06 51°13.68 2°55.892 0.8 56 10.6 102100 84
2009-05-20 04:19:11 51°13.682 2°55.885 0.7 20 10.6 102100 84
2009-05-20 04:19:16 51°13.683 2°55.878 2.1 52 10.6 102100 84
2009-05-20 04:19:21 51°13.685 2°55.872 1.9 26 10.6 102110 84
2009-05-20 04:19:27 51°13.687 2°55.863 1.5 53 10.6 102110 84
2009-05-20 04:19:31 51°13.688 2°55.858 1.7 27 10.6 102100 84
2009-05-20 04:19:36 51°13.689 2°55.851 1.6 52 10.6 102100 84
2009-05-20 04:19:41 51°13.691 2°55.844 2.5 43 10.6 102100 85
2009-05-20 04:19:47 51°13.692 2°55.835 2.9 42 10.6 102100 85
2009-05-20 04:19:51 51°13.693 2°55.83 2.5 25 10.6 102110 85
2009-05-20 04:19:56 51°13.694 2°55.823 2 45 10.6 102110 85
2009-05-20 04:20:01 51°13.695 2°55.816 1.8 21 10.6 102100 85
2009-05-20 04:20:07 51°13.696 2°55.807 2.1 57 10.6 102100 85
2009-05-20 04:20:11 51°13.696 2°55.802 1.9 24 10.6 102100 85
2009-05-20 04:20:16 51°13.697 2°55.796 2 51 10.6 102100 85
2009-05-20 04:20:21 51°13.697 2°55.789 1.8 26 10.6 102110 85
2009-05-20 04:20:26 51°13.698 2°55.783 2.6 55 10.6 102110 85
2009-05-20 04:20:31 51°13.698 2°55.777 2.6 42 10.6 102100 85
2009-05-20 04:20:36 51°13.698 2°55.771 2.3 42 10.6 102100 85
2009-05-20 04:20:41 51°13.699 2°55.765 2 38 10.6 102110 85
2009-05-20 04:20:46 51°13.699 2°55.76 1.6 51 10.6 102110 85
2009-05-20 04:20:51 51°13.7 2°55.757 1.9 22 10.6 102100 85
2009-05-20 04:20:56 51°13.7 2°55.756 1.6 60 10.6 102100 85
2009-05-20 04:21:01 51°13.701 2°55.755 1.4 45 10.6 102100 85
2009-05-20 04:21:06 51°13.702 2°55.755 1.2 39 10.6 102100 85
2009-05-20 04:21:10 51°13.703 2°55.755 1.1 37 10.6 102110 85
2009-05-20 04:21:15 51°13.704 2°55.756 0.7 44 10.6 102110 85
2009-05-20 04:21:20 51°13.705 2°55.757 0.8 41 10.6 102110 85
2009-05-20 04:21:25 51°13.707 2°55.757 0.6 37 10.6 102110 85
2009-05-20 04:21:30 51°13.708 2°55.758 0.4 37 10.6 102110 85
2009-05-20 04:21:35 51°13.71 2°55.758 0.1 58 10.6 102110 85
2009-05-20 04:21:39 51°13.711 2°55.758 0.3 21 10.6 102100 85
2009-05-20 04:21:44 51°13.711 2°55.758 0.6 79 10.6 102100 85
2009-05-20 04:21:49 51°13.712 2°55.757 0.9 21 10.6 102110 85
2009-05-20 04:21:54 51°13.711 2°55.756 1 56 10.6 102110 85
2009-05-20 04:21:59 51°13.711 2°55.755 0.9 19 10.6 102110 85
2009-05-20 04:22:04 51°13.71 2°55.754 1.4 52 10.6 102110 85
2009-05-20 04:22:08 51°13.71 2°55.753 1.2 26 10.6 102110 85
2009-05-20 04:22:13 51°13.709 2°55.752 1.1 55 10.6 102110 85
2009-05-20 04:22:18 51°13.708 2°55.751 0.8 18 10.6 102100 85
2009-05-20 04:22:23 51°13.708 2°55.751 0.6 59 10.6 102100 85
2009-05-20 04:22:28 51°13.709 2°55.75 0.6 20 10.6 102110 85
2009-05-20 04:22:33 51°13.71 2°55.749 0.6 313 10.6 102110 85
2009-05-20 04:22:37 51°13.711 2°55.748 0.6 264 10.6 102110 85
2009-05-20 04:22:42 51°13.713 2°55.746 0.6 281 10.6 102110 85
2009-05-20 04:22:47 51°13.714 2°55.745 0.8 247 10.6 102110 85
2009-05-20 04:22:52 51°13.716 2°55.743 1.2 305 10.6 102110 85
2009-05-20 04:22:58 51°13.718 2°55.741 1.1 247 10.7 102110 85
2009-05-20 04:23:03 51°13.72 2°55.738 1.1 311 10.7 102110 85
2009-05-20 04:23:07 51°13.722 2°55.736 1.3 19 10.7 102110 85
2009-05-20 04:23:12 51°13.725 2°55.734 1 308 10.7 102110 85
2009-05-20 04:23:18 51°13.728 2°55.731 1.4 20 10.7 102110 85
2009-05-20 04:23:23 51°13.73 2°55.728 1.5 306 10.7 102110 85
2009-05-20 04:23:27 51°13.732 2°55.725 1.8 254 10.7 102110 85
2009-05-20 04:23:32 51°13.735 2°55.722 2 309 10.7 102110 85
2009-05-20 04:23:38 51°13.738 2°55.718 1.8 20 10.7 102110 85
2009-05-20 04:23:43 51°13.741 2°55.714 1.5 303 10.7 102110 85
2009-05-20 04:23:47 51°13.744 2°55.712 1.2 249 10.7 102110 85
2009-05-20 04:23:52 51°13.747 2°55.708 1.4 309 10.7 102110 85
2009-05-20 04:23:57 51°13.75 2°55.704 1.4 20 10.7 102110 85
2009-05-20 04:24:03 51°13.754 2°55.7 1.9 305 10.7 102110 85
2009-05-20 04:24:07 51°13.756 2°55.697 1.9 19 10.7 102110 85
2009-05-20 04:24:11 51°13.759 2°55.693 1.3 303 10.7 102110 85
2009-05-20 04:24:17 51°13.763 2°55.689 1.3 20 10.7 102110 85
2009-05-20 04:24:23 51°13.767 2°55.684 1.2 303 10.7 102110 85
2009-05-20 04:24:27 51°13.769 2°55.68 1.2 21 10.7 102110 85
2009-05-20 04:24:31 51°13.772 2°55.677 1.6 308 10.7 102110 85
2009-05-20 04:24:37 51°13.776 2°55.672 1.9 22 10.7 102110 85
2009-05-20 04:24:43 51°13.78 2°55.667 1.7 307 10.7 102110 85
2009-05-20 04:24:47 51°13.783 2°55.664 1.9 28 10.7 102110 85
2009-05-20 04:24:51 51°13.786 2°55.661 1.6 310 10.7 102110 85
2009-05-20 04:24:57 51°13.791 2°55.656 1.7 248 10.7 102110 85
2009-05-20 04:25:03 51°13.796 2°55.653 1.7 302 10.7 102110 85
2009-05-20 04:25:07 51°13.799 2°55.65 2 253 10.7 102110 85
2009-05-20 04:25:12 51°13.803 2°55.648 1.1 303 10.7 102110 85
2009-05-20 04:25:17 51°13.807 2°55.645 1.2 246 10.7 102110 85
2009-05-20 04:25:23 51°13.812 2°55.643 1.1 310 10.7 102110 85
2009-05-20 04:25:27 51°13.815 2°55.641 0.9 23 10.7 102110 85
2009-05-20 04:25:31 51°13.819 2°55.64 0.9 303 10.7 102110 85
2009-05-20 04:25:37 51°13.824 2°55.638 0.8 256 10.7 102110 85
2009-05-20 04:25:43 51°13.829 2°55.637 1 281 10.7 102110 85
2009-05-20 04:25:47 51°13.832 2°55.636 0.7 256 10.7 102110 85
2009-05-20 04:25:53 51°13.837 2°55.635 0.7 305 10.7 102110 85
2009-05-20 04:25:57 51°13.84 2°55.635 1.1 23 10.7 102110 85
2009-05-20 04:26:03 51°13.845 2°55.634 1.3 49 10.7 102110 85
2009-05-20 04:26:07 51°13.848 2°55.633 1.9 25 10.6 102110 85
2009-05-20 04:26:11 51°13.851 2°55.633 2.4 53 10.6 102110 85
2009-05-20 04:26:17 51°13.855 2°55.632 2.1 28 10.6 102110 85
2009-05-20 04:26:23 51°13.859 2°55.632 1.8 51 10.6 102110 85
2009-05-20 04:26:27 51°13.862 2°55.631 1.8 25 10.6 102110 85
2009-05-20 04:26:32 51°13.866 2°55.631 1.2 57 10.6 102110 85
2009-05-20 04:26:37 51°13.869 2°55.631 1.3 19 10.6 102110 85
2009-05-20 04:26:43 51°13.873 2°55.631 0.7 57 10.6 102110 85
2009-05-20 04:26:47 51°13.876 2°55.632 0.5 27 10.6 102100 85
2009-05-20 04:26:51 51°13.878 2°55.632 0.6 34 10.6 102100 85
2009-05-20 04:26:57 51°13.882 2°55.632 0.6 40 10.6 102110 85
2009-05-20 04:27:03 51°13.886 2°55.632 0.6 40 10.6 102110 85
2009-05-20 04:27:07 51°13.888 2°55.633 0.5 20 10.7 102100 85
2009-05-20 04:27:11 51°13.891 2°55.633 1 52 10.7 102100 85
2009-05-20 04:27:17 51°13.895 2°55.634 1.3 28 10.7 102110 85
2009-05-20 04:27:23 51°13.898 2°55.635 1.5 50 10.7 102110 85
2009-05-20 04:27:27 51°13.901 2°55.636 1.7 27 10.7 102110 85
2009-05-20 04:27:32 51°13.903 2°55.636 1.3 51 10.7 102110 85
2009-05-20 04:27:37 51°13.906 2°55.637 1.8 26 10.7 102110 85
2009-05-20 04:27:43 51°13.91 2°55.637 1.4 55 10.7 102110 85
2009-05-20 04:27:47 51°13.913 2°55.638 1.5 24 10.7 102110 85
2009-05-20 04:27:53 51°13.916 2°55.638 1.4 55 10.7 102110 85
2009-05-20 04:27:57 51°13.918 2°55.639 1.6 19 10.7 102110 85
2009-05-20 04:28:03 51°13.922 2°55.639 1.2 57 10.7 102110 85
2009-05-20 04:28:07 51°13.924 2°55.639 0.9 19 10.7 102100 85
2009-05-20 04:28:11 51°13.927 2°55.639 1.4 51 10.7 102100 85
2009-05-20 04:28:17 51°13.93 2°55.639 1.2 21 10.7 102100 85
2009-05-20 04:28:23 51°13.933 2°55.639 1.4 57 10.7 102100 85
2009-05-20 04:28:27 51°13.935 2°55.639 1.2 19 10.7 102110 85
2009-05-20 04:28:32 51°13.938 2°55.639 1.3 50 10.7 102110 85
2009-05-20 04:28:37 51°13.941 2°55.639 1.6 22 10.8 102110 85
2009-05-20 04:28:43 51°13.944 2°55.638 1.5 56 10.8 102110 85
2009-05-20 04:28:47 51°13.946 2°55.638 1.5 26 10.8 102110 85
2009-05-20 04:28:51 51°13.949 2°55.637 1 55 10.8 102110 85
2009-05-20 04:28:57 51°13.952 2°55.636 1.4 21 10.8 102110 85
2009-05-20 04:29:03 51°13.955 2°55.636 1.3 53 10.8 102110 85
2009-05-20 04:29:07 51°13.956 2°55.635 1.8 24 10.8 102110 85
2009-05-20 04:29:11 51°13.958 2°55.635 2.2 53 10.8 102110 85
2009-05-20 04:29:17 51°13.959 2°55.634 2.1 24 10.8 102110 85
2009-05-20 04:29:23 51°13.96 2°55.634 2 57 10.8 102110 85
2009-05-20 04:29:27 51°13.961 2°55.635 2.3 27 10.8 102110 84
2009-05-20 04:29:31 51°13.961 2°55.634 2.2 57 10.8 102110 84
2009-05-20 04:29:37 51°13.961 2°55.634 2.1 26 10.8 102110 84
2009-05-20 04:29:43 51°13.96 2°55.635 2.2 59 10.8 102110 84
2009-05-20 04:29:47 51°13.96 2°55.635 3.2 19 10.8 102110 84
2009-05-20 04:29:51 51°13.959 2°55.635 3.3 53 10.8 102110 84
2009-05-20 04:29:57 51°13.958 2°55.636 2.7 26 10.8 102110 84
2009-05-20 04:30:03 51°13.957 2°55.637 2.8 56 10.8 102110 84
2009-05-20 04:30:07 51°13.957 2°55.637 2.3 26 10.8 102110 84
2009-05-20 04:30:13 51°13.956 2°55.637 2.8 51 10.8 102110 84
2009-05-20 04:30:18 51°13.955 2°55.638 2.5 24 10.8 102110 84
2009-05-20 04:30:23 51°13.955 2°55.638 1.9 51 10.8 102110 84
2009-05-20 04:30:28 51°13.955 2°55.638 2.4 28 10.8 102110 84
2009-05-20 04:30:33 51°13.955 2°55.637 2.4 50 10.8 102110 84
2009-05-20 04:30:38 51°13.956 2°55.637 2.1 20 10.8 102110 84
2009-05-20 04:30:43 51°13.957 2°55.637 2 56 10.8 102110 84
2009-05-20 04:30:47 51°13.958 2°55.636 2.1 20 10.8 102110 84
2009-05-20 04:30:52 51°13.96 2°55.634 2 58 10.8 102110 84
2009-05-20 04:30:57 51°13.962 2°55.633 1.8 21 10.8 102110 84
2009-05-20 04:31:03 51°13.966 2°55.63 2.1 307 10.8 102110 84
2009-05-20 04:31:07 51°13.97 2°55.627 1.7 263 10.8 102110 84
2009-05-20 04:31:11 51°13.973 2°55.623 2.3 303 10.8 102110 84
2009-05-20 04:31:17 51°13.979 2°55.617 2.5 257 10.8 102110 84
2009-05-20 04:31:23 51°13.986 2°55.609 2.2 304 10.8 102110 84
2009-05-20 04:31:27 51°13.991 2°55.603 2.3 26 10.8 102110 84
2009-05-20 04:31:31 51°13.996 2°55.596 2.2 308 10.8 102110 84
2009-05-20 04:31:37 51°14.004 2°55.586 2.3 27 10.8 102110 84
2009-05-20 04:31:43 51°14.013 2°55.574 2.4 305 10.8 102110 84
2009-05-20 04:31:47 51°14.019 2°55.566 3.3 324 10.8 102110 84
2009-05-20 04:31:51 51°14.025 2°55.558 2.8 306 10.8 102110 84
2009-05-20 04:31:57 51°14.035 2°55.544 3.7 325 10.8 102110 84
2009-05-20 04:32:03 51°14.045 2°55.531 3.2 304 10.8 102110 84
2009-05-20 04:32:07 51°14.052 2°55.522 3.7 333 10.8 102100 84
2009-05-20 04:32:12 51°14.06 2°55.51 3.9 305 10.8 102100 84
2009-05-20 04:32:17 51°14.069 2°55.498 3.7 19 10.8 102110 84
2009-05-20 04:32:23 51°14.08 2°55.483 3.1 302 10.8 102110 84
2009-05-20 04:32:27 51°14.088 2°55.474 2.6 316 10.8 102110 84
2009-05-20 04:32:31 51°14.096 2°55.465 3.3 307 10.8 102110 84
2009-05-20 04:32:37 51°14.107 2°55.45 3.3 22 10.9 102110 84
2009-05-20 04:32:43 51°14.119 2°55.436 2.7 302 10.9 102110 84
2009-05-20 04:32:47 51°14.127 2°55.427 2.7 27 10.9 102110 84
2009-05-20 04:32:51 51°14.135 2°55.418 4 310 10.9 102110 84
2009-05-20 04:32:57 51°14.146 2°55.404 3.9 321 10.9 102110 84
2009-05-20 04:33:03 51°14.158 2°55.39 3.3 306 10.9 102110 84
2009-05-20 04:33:07 51°14.166 2°55.381 4.6 320 10.9 102110 84
2009-05-20 04:33:12 51°14.176 2°55.369 4.3 310 10.9 102110 84
2009-05-20 04:33:17 51°14.185 2°55.357 3.3 20 10.9 102110 84
2009-05-20 04:33:23 51°14.197 2°55.343 3.7 301 10.9 102110 84
2009-05-20 04:33:27 51°14.204 2°55.332 2.9 322 10.9 102100 84
2009-05-20 04:33:31 51°14.212 2°55.323 3.1 301 10.9 102100 84
2009-05-20 04:33:37 51°14.223 2°55.307 3.4 316 10.9 102110 83
2009-05-20 04:33:43 51°14.234 2°55.291 3.4 303 10.9 102110 83
2009-05-20 04:33:47 51°14.241 2°55.281 4.1 322 10.9 102110 83
2009-05-20 04:33:51 51°14.248 2°55.269 3.3 304 10.9 102110 83
2009-05-20 04:33:57 51°14.259 2°55.252 4.6 18 10.9 102110 83
2009-05-20 04:34:03 51°14.269 2°55.235 3.8 310 10.9 102110 83
2009-05-20 04:34:07 51°14.277 2°55.223 4.5 316 10.9 102110 83
2009-05-20 04:34:12 51°14.285 2°55.207 5.1 308 10.9 102110 83
2009-05-20 04:34:17 51°14.294 2°55.191 4.5 25 10.9 102110 83
2009-05-20 04:34:23 51°14.305 2°55.172 4.9 309 10.9 102110 83
2009-05-20 04:34:27 51°14.312 2°55.159 4.9 28 10.9 102100 83
2009-05-20 04:34:33 51°14.322 2°55.138 4.9 302 10.9 102100 83
2009-05-20 04:34:37 51°14.329 2°55.124 4.8 320 10.9 102110 83
2009-05-20 04:34:43 51°14.339 2°55.102 5.5 307 10.9 102110 83
2009-05-20 04:34:47 51°14.345 2°55.086 4.5 328 10.9 102110 83
2009-05-20 04:34:53 51°14.354 2°55.064 4.4 309 10.9 102110 83
2009-05-20 04:34:57 51°14.36 2°55.048 6.2 25 10.9 102100 83
2009-05-20 04:35:03 51°14.37 2°55.025 7.8 308 10.9 102100 83
2009-05-20 04:35:07 51°14.377 2°55.009 7 25 10.9 102100 83
2009-05-20 04:35:11 51°14.383 2°54.993 5.7 309 10.9 102100 83
2009-05-20 04:35:17 51°14.392 2°54.968 6.9 26 11 102100 83
2009-05-20 04:35:23 51°14.403 2°54.944 6.6 305 11 102100 83
2009-05-20 04:35:27 51°14.41 2°54.928 6.8 19 11 102100 82
2009-05-20 04:35:31 51°14.418 2°54.913 6.5 304 11 102100 82
2009-05-20 04:35:37 51°14.429 2°54.89 7.5 22 11 102100 82
2009-05-20 04:35:43 51°14.44 2°54.865 6.6 310 11 102100 82
2009-05-20 04:35:47 51°14.448 2°54.85 7.5 20 11 102100 82
2009-05-20 04:35:52 51°14.457 2°54.829 7.8 307 11 102100 82
2009-05-20 04:35:57 51°14.467 2°54.809 8 24 11.1 102100 82
2009-05-20 04:36:03 51°14.479 2°54.784 6 302 11.1 102100 82
2009-05-20 04:36:07 51°14.487 2°54.768 5.5 24 11.1 102100 82
2009-05-20 04:36:12 51°14.496 2°54.748 5.3 303 11.1 102100 82
2009-05-20 04:36:17 51°14.506 2°54.727 5.8 26 11.1 102100 82
2009-05-20 04:36:23 51°14.518 2°54.703 6.9 304 11.1 102100 82
2009-05-20 04:36:27 51°14.526 2°54.686 6.6 20 11.1 102100 82
2009-05-20 04:36:31 51°14.533 2°54.668 5.9 302 11.1 102100 82
2009-05-20 04:36:37 51°14.544 2°54.642 5.9 21 11.2 102100 82
2009-05-20 04:36:43 51°14.554 2°54.615 7.5 304 11.2 102100 82
2009-05-20 04:36:47 51°14.561 2°54.597 7.4 20 11.2 102100 82
2009-05-20 04:36:53 51°14.571 2°54.57 5.9 302 11.2 102100 82
2009-05-20 04:36:57 51°14.578 2°54.551 5.9 28 11.2 102100 82
2009-05-20 04:37:03 51°14.588 2°54.524 5.8 302 11.2 102100 82
2009-05-20 04:37:07 51°14.595 2°54.506 7.1 27 11.2 102100 81
2009-05-20 04:37:13 51°14.605 2°54.478 5.8 308 11.2 102100 81
2009-05-20 04:37:17 51°14.612 2°54.46 7.1 22 11.2 102100 81
2009-05-20 04:37:23 51°14.622 2°54.432 6.9 309 11.2 102100 81
2009-05-20 04:37:27 51°14.629 2°54.414 6.9 19 11.2 102100 81
2009-05-20 04:37:31 51°14.636 2°54.395 7.1 306 11.2 102100 81
2009-05-20 04:37:37 51°14.646 2°54.368 5.4 22 11.2 102100 81
2009-05-20 04:37:43 51°14.656 2°54.34 6.7 309 11.2 102100 81
2009-05-20 04:37:47 51°14.663 2°54.321 7 26 11.1 102100 82
2009-05-20 04:37:51 51°14.669 2°54.302 5.5 304 11.1 102100 82
2009-05-20 04:37:57 51°14.679 2°54.274 5.9 25 11.1 102100 82
2009-05-20 04:38:03 51°14.688 2°54.245 7.1 306 11.1 102100 82
2009-05-20 04:38:07 51°14.694 2°54.226 5.6 22 11.1 102110 82
2009-05-20 04:38:12 51°14.701 2°54.202 5.9 304 11.1 102110 82
2009-05-20 04:38:17 51°14.709 2°54.178 5.8 20 11.1 102100 82
2009-05-20 04:38:23 51°14.717 2°54.148 8.6 309 11.1 102100 82
2009-05-20 04:38:27 51°14.723 2°54.129 6.1 25 11.1 102100 82
2009-05-20 04:38:31 51°14.729 2°54.109 8.2 304 11.1 102100 82
2009-05-20 04:38:37 51°14.737 2°54.08 7.1 24 11.1 102100 82
2009-05-20 04:38:43 51°14.745 2°54.051 8.6 280 11.1 102100 82
2009-05-20 04:38:47 51°14.751 2°54.031 8.1 21 11.1 102100 83
2009-05-20 04:38:53 51°14.759 2°54.001 7.9 309 11.1 102100 83
2009-05-20 04:38:57 51°14.765 2°53.982 6.3 25 11.1 102100 83
2009-05-20 04:39:03 51°14.773 2°53.952 8.2 304 11.1 102100 83
2009-05-20 04:39:07 51°14.779 2°53.933 6.6 23 11.1 102100 84
2009-05-20 04:39:12 51°14.786 2°53.909 6.5 304 11.1 102100 84
2009-05-20 04:39:17 51°14.792 2°53.884 7 25 11.1 102100 83
2009-05-20 04:39:23 51°14.8 2°53.854 6.8 308 11.1 102100 83
2009-05-20 04:39:27 51°14.805 2°53.834 7.1 25 11.1 102100 84
2009-05-20 04:39:31 51°14.809 2°53.813 8.4 303 11.1 102100 84
2009-05-20 04:39:37 51°14.816 2°53.783 8.2 25 11.1 102100 84
2009-05-20 04:39:43 51°14.823 2°53.752 7.6 309 11.1 102100 84
2009-05-20 04:39:47 51°14.827 2°53.732 9.6 28 11.1 102100 84
2009-05-20 04:39:51 51°14.832 2°53.711 7.2 309 11.1 102100 84
2009-05-20 04:39:57 51°14.838 2°53.681 8.6 20 11.1 102100 84
2009-05-20 04:40:03 51°14.844 2°53.65 6.7 304 11.1 102100 84
2009-05-20 04:40:07 51°14.849 2°53.629 8.3 22 11.1 102100 84
2009-05-20 04:40:12 51°14.854 2°53.603 6.9 309 11.1 102100 84
2009-05-20 04:40:17 51°14.859 2°53.577 7.3 26 11.1 102100 84
2009-05-20 04:40:23 51°14.865 2°53.547 7.2 306 11.1 102100 84
2009-05-20 04:40:27 51°14.87 2°53.526 8.5 27 11.1 102100 84
2009-05-20 04:40:31 51°14.874 2°53.506 6.9 305 11.1 102100 84
2009-05-20 04:40:37 51°14.881 2°53.475 8.6 23 11.2 102100 84
2009-05-20 04:40:43 51°14.887 2°53.444 6.9 280 11.2 102100 84
2009-05-20 04:40:47 51°14.891 2°53.424 8 21 11.2 102100 84
2009-05-20 04:40:51 51°14.896 2°53.403 8.5 302 11.2 102100 84
2009-05-20 04:40:57 51°14.902 2°53.372 6.8 20 11.2 102090 84
2009-05-20 04:41:03 51°14.908 2°53.341 7 305 11.2 102090 84
2009-05-20 04:41:07 51°14.913 2°53.32 6.7 20 11.2 102100 85
2009-05-20 04:41:13 51°14.919 2°53.289 6.8 310 11.2 102100 85
2009-05-20 04:41:17 51°14.923 2°53.269 8.5 20 11.2 102100 84
2009-05-20 04:41:23 51°14.929 2°53.238 8.7 307 11.2 102100 84
2009-05-20 04:41:27 51°14.933 2°53.217 7.1 24 11.2 102090 84
2009-05-20 04:41:33 51°14.939 2°53.186 8.2 308 11.2 102090 84
2009-05-20 04:41:37 51°14.943 2°53.165 8.9 25 11.2 102090 85
2009-05-20 04:41:43 51°14.949 2°53.134 9.3 281 11.2 102090 85
2009-05-20 04:41:47 51°14.952 2°53.114 7.5 21 11.2 102100 84
2009-05-20 04:41:53 51°14.958 2°53.083 6.8 309 11.2 102100 84
2009-05-20 04:41:57 51°14.962 2°53.062 7.9 22 11.2 102090 84
2009-05-20 04:42:03 51°14.968 2°53.031 9.3 305 11.2 102090 84
2009-05-20 04:42:07 51°14.972 2°53.011 8.9 25 11.2 102090 84
2009-05-20 04:42:12 51°14.977 2°52.986 9 308 11.2 102090 84
2009-05-20 04:42:17 51°14.982 2°52.96 8.7 20 11.2 102090 85
2009-05-20 04:42:23 51°14.988 2°52.929 8.6 309 11.2 102090 85
2009-05-20 04:42:27 51°14.992 2°52.908 9.1 22 11.2 102090 84
2009-05-20 04:42:31 51°14.997 2°52.888 8.9 308 11.2 102090 84
2009-05-20 04:42:37 51°15.003 2°52.857 8.7 19 11.2 102090 84
2009-05-20 04:42:43 51°15.009 2°52.827 6.9 278 11.2 102090 84
2009-05-20 04:42:47 51°15.013 2°52.806 8.6 28 11.2 102090 84
2009-05-20 04:42:51 51°15.017 2°52.786 8.6 303 11.2 102090 84
2009-05-20 04:42:57 51°15.023 2°52.755 8 28 11.2 102100 84
2009-05-20 04:43:03 51°15.029 2°52.724 8.1 308 11.2 102100 84
2009-05-20 04:43:07 51°15.033 2°52.703 7.1 24 11.2 102090 84
2009-05-20 04:43:12 51°15.039 2°52.678 8.6 305 11.2 102090 84
2009-05-20 04:43:17 51°15.044 2°52.653 8.5 21 11.2 102100 84
2009-05-20 04:43:23 51°15.05 2°52.622 8.6 304 11.2 102100 84
2009-05-20 04:43:27 51°15.054 2°52.602 6.7 20 11.3 102100 84
2009-05-20 04:43:31 51°15.058 2°52.581 8.3 310 11.3 102100 84
2009-05-20 04:43:37 51°15.064 2°52.551 6.6 24 11.3 102090 84
2009-05-20 04:43:43 51°15.07 2°52.52 8.4 307 11.3 102090 84
2009-05-20 04:43:47 51°15.074 2°52.499 6.5 22 11.3 102100 84
2009-05-20 04:43:53 51°15.081 2°52.469 6.5 303 11.3 102100 84
2009-05-20 04:43:57 51°15.085 2°52.448 6.3 21 11.3 102100 84
2009-05-20 04:44:03 51°15.091 2°52.418 7.6 303 11.3 102100 84
2009-05-20 04:44:07 51°15.095 2°52.397 8.1 27 11.3 102100 85
2009-05-20 04:44:11 51°15.099 2°52.377 8.7 308 11.3 102100 85
2009-05-20 04:44:17 51°15.106 2°52.346 7.1 21 11.3 102100 85
2009-05-20 04:44:23 51°15.113 2°52.316 7.1 306 11.3 102100 85
2009-05-20 04:44:27 51°15.117 2°52.295 8.7 25 11.3 102100 85
2009-05-20 04:44:31 51°15.122 2°52.275 8.2 310 11.3 102100 85
2009-05-20 04:44:37 51°15.13 2°52.246 8.8 20 11.3 102090 85
2009-05-20 04:44:43 51°15.138 2°52.216 8.3 283 11.3 102090 85
2009-05-20 04:44:47 51°15.143 2°52.197 7.9 25 11.3 102100 85
2009-05-20 04:44:51 51°15.149 2°52.177 6.7 305 11.3 102100 85
2009-05-20 04:44:57 51°15.157 2°52.148 6.5 25 11.3 102090 86
2009-05-20 04:45:03 51°15.166 2°52.119 6.5 309 11.3 102090 86
2009-05-20 04:45:07 51°15.171 2°52.1 6.9 21 11.3 102100 85
2009-05-20 04:45:12 51°15.179 2°52.076 8.4 304 11.3 102100 85
2009-05-20 04:45:17 51°15.186 2°52.052 6.2 21 11.3 102100 85
2009-05-20 04:45:23 51°15.194 2°52.022 7.8 303 11.3 102100 85
2009-05-20 04:45:27 51°15.2 2°52.003 6.6 21 11.3 102090 85
2009-05-20 04:45:31 51°15.206 2°51.984 7.9 308 11.3 102090 85
2009-05-20 04:45:37 51°15.215 2°51.955 8.5 25 11.3 102100 86
2009-05-20 04:45:43 51°15.223 2°51.926 7.2 304 11.3 102100 86
2009-05-20 04:45:47 51°15.229 2°51.906 7.4 25 11.4 102100 86
2009-05-20 04:45:53 51°15.237 2°51.876 6.5 306 11.4 102100 86
2009-05-20 04:45:57 51°15.243 2°51.857 8.5 20 11.4 102100 86
2009-05-20 04:46:03 51°15.252 2°51.828 4.4 308 11.4 102100 86
2009-05-20 04:46:07 51°15.257 2°51.808 8.6 25 11.4 102100 86
2009-05-20 04:46:13 51°15.266 2°51.779 7.9 309 11.4 102100 86
2009-05-20 04:46:17 51°15.271 2°51.759 6.9 22 11.4 102100 87
2009-05-20 04:46:23 51°15.28 2°51.73 7.1 304 11.4 102100 87
2009-05-20 04:46:27 51°15.284 2°51.709 8.6 21 11.4 102100 87
2009-05-20 04:46:31 51°15.289 2°51.689 9 307 11.4 102100 87
2009-05-20 04:46:37 51°15.294 2°51.657 8.8 315 11.5 102100 87
2009-05-20 04:46:43 51°15.299 2°51.626 9.6 280 11.5 102100 87
2009-05-20 04:46:47 51°15.302 2°51.605 9.1 22 11.5 102100 87
2009-05-20 04:46:51 51°15.304 2°51.583 9.7 302 11.5 102100 87
2009-05-20 04:46:57 51°15.308 2°51.551 9.9 26 11.5 102090 86
2009-05-20 04:47:03 51°15.311 2°51.519 8.1 305 11.5 102090 86
2009-05-20 04:47:07 51°15.312 2°51.497 9.6 315 11.5 102090 86
2009-05-20 04:47:12 51°15.314 2°51.47 7.8 302 11.5 102090 86
2009-05-20 04:47:17 51°15.315 2°51.443 9.9 316 11.5 102090 86
2009-05-20 04:47:23 51°15.316 2°51.41 9.9 304 11.5 102090 86
2009-05-20 04:47:27 51°15.317 2°51.388 4.4 21 11.5 102090 85
2009-05-20 04:47:32 51°15.317 2°51.36 9.7 305 11.5 102090 85
2009-05-20 04:47:37 51°15.317 2°51.333 10.1 317 11.5 102090 85
2009-05-20 04:47:43 51°15.317 2°51.3 8.2 308 11.5 102090 85
2009-05-20 04:47:47 51°15.317 2°51.278 10.1 318 11.5 102090 85
2009-05-20 04:47:53 51°15.317 2°51.245 8.3 303 11.5 102090 85
2009-05-20 04:47:57 51°15.316 2°51.223 8.6 317 11.5 102090 85
2009-05-20 04:48:03 51°15.316 2°51.19 7.9 304 11.5 102090 85
2009-05-20 04:48:07 51°15.315 2°51.168 10.3 316 11.5 102090 86
2009-05-20 04:48:13 51°15.314 2°51.135 8.2 303 11.5 102090 86
2009-05-20 04:48:17 51°15.314 2°51.113 8 320 11.6 102090 85
2009-05-20 04:48:23 51°15.313 2°51.079 8.5 304 11.6 102090 85
2009-05-20 04:48:27 51°15.312 2°51.057 8 317 11.6 102090 86
2009-05-20 04:48:32 51°15.312 2°51.03 10.4 308 11.6 102090 86
2009-05-20 04:48:37 51°15.311 2°51.002 9 318 11.6 102090 86
2009-05-20 04:48:43 51°15.31 2°50.969 11 280 11.6 102090 86
2009-05-20 04:48:47 51°15.309 2°50.947 8.4 319 11.6 102090 86
2009-05-20 04:48:51 51°15.309 2°50.925 8.3 310 11.6 102090 86
2009-05-20 04:48:57 51°15.309 2°50.892 10.1 316 11.7 102090 86
2009-05-20 04:49:03 51°15.309 2°50.859 8.3 305 11.7 102090 86
2009-05-20 04:49:07 51°15.308 2°50.837 10.5 317 11.7 102090 85
2009-05-20 04:49:11 51°15.308 2°50.815 8.5 307 11.7 102090 85
2009-05-20 04:49:17 51°15.308 2°50.781 10.2 317 11.7 102090 85
2009-05-20 04:49:23 51°15.309 2°50.748 10.9 306 11.7 102090 85
2009-05-20 04:49:27 51°15.309 2°50.727 9.1 316 11.7 102090 85
2009-05-20 04:49:32 51°15.309 2°50.699 10.8 304 11.7 102090 85
2009-05-20 04:49:37 51°15.309 2°50.671 8.5 317 11.7 102090 85
2009-05-20 04:49:43 51°15.309 2°50.638 4.4 307 11.7 102090 85
2009-05-20 04:49:47 51°15.309 2°50.616 8.7 316 11.7 102090 84
2009-05-20 04:49:51 51°15.309 2°50.594 8.7 301 11.7 102090 84
2009-05-20 04:49:57 51°15.309 2°50.561 9 315 11.7 102090 83
2009-05-20 04:50:03 51°15.31 2°50.527 8.2 309 11.7 102090 83
2009-05-20 04:50:07 51°15.31 2°50.505 10.9 316 11.7 102090 83
2009-05-20 04:50:13 51°15.31 2°50.472 8.8 302 11.7 102090 83
2009-05-20 04:50:17 51°15.31 2°50.45 11 317 11.7 102090 83
2009-05-20 04:50:23 51°15.31 2°50.417 10.5 302 11.7 102090 83
2009-05-20 04:50:27 51°15.311 2°50.395 10.6 316 11.7 102090 83
2009-05-20 04:50:33 51°15.311 2°50.361 8.8 310 11.7 102090 83
2009-05-20 04:50:37 51°15.311 2°50.339 11.3 315 11.7 102090 83
2009-05-20 04:50:43 51°15.311 2°50.306 9.4 277 11.7 102090 83
2009-05-20 04:50:47 51°15.311 2°50.284 8.9 317 11.8 102090 82
2009-05-20 04:50:53 51°15.311 2°50.25 8.8 305 11.8 102090 82
2009-05-20 04:50:57 51°15.311 2°50.228 10.8 316 11.8 102090 82
2009-05-20 04:51:03 51°15.311 2°50.195 11.1 309 11.8 102090 82
2009-05-20 04:51:07 51°15.311 2°50.173 9.7 319 11.8 102090 82
2009-05-20 04:51:11 51°15.311 2°50.15 10.4 310 11.8 102090 82
2009-05-20 04:51:17 51°15.311 2°50.118 10.1 319 11.8 102090 82
2009-05-20 04:51:23 51°15.311 2°50.084 8.9 304 11.8 102090 82
2009-05-20 04:51:27 51°15.311 2°50.062 10.9 317 11.8 102090 82
2009-05-20 04:51:31 51°15.311 2°50.04 9.1 305 11.8 102090 82
2009-05-20 04:51:37 51°15.311 2°50.007 8.6 318 11.8 102090 81
2009-05-20 04:51:43 51°15.311 2°49.974 8.6 303 11.8 102090 81
2009-05-20 04:51:47 51°15.311 2°49.952 10.8 317 11.8 102090 81
2009-05-20 04:51:52 51°15.311 2°49.924 8.4 304 11.8 102090 81
2009-05-20 04:51:57 51°15.311 2°49.897 10.4 318 11.9 102090 82
2009-05-20 04:52:03 51°15.311 2°49.863 10.7 303 11.9 102090 82
2009-05-20 04:52:07 51°15.312 2°49.842 10.6 318 11.8 102090 82
2009-05-20 04:52:12 51°15.311 2°49.814 10.1 305 11.8 102090 82
2009-05-20 04:52:17 51°15.311 2°49.787 10.6 318 11.9 102090 81
2009-05-20 04:52:23 51°15.31 2°49.754 11.4 302 11.9 102090 81
2009-05-20 04:52:27 51°15.31 2°49.731 8.8 318 11.9 102090 81
2009-05-20 04:52:32 51°15.31 2°49.704 11 307 11.9 102090 81
2009-05-20 04:52:37 51°15.309 2°49.677 9 321 11.9 102090 82
2009-05-20 04:52:43 51°15.309 2°49.644 11.5 283 11.9 102090 82
2009-05-20 04:52:47 51°15.308 2°49.622 9 319 11.9 102100 82
2009-05-20 04:52:53 51°15.308 2°49.589 8.7 304 11.9 102100 82
2009-05-20 04:52:57 51°15.307 2°49.567 9.2 319 11.9 102090 81
2009-05-20 04:53:03 51°15.307 2°49.534 11.4 305 11.9 102090 81
2009-05-20 04:53:07 51°15.307 2°49.512 11 319 11.9 102090 81
2009-05-20 04:53:13 51°15.306 2°49.48 11.1 306 11.9 102090 81
2009-05-20 04:53:17 51°15.306 2°49.458 9.3 319 11.9 102090 81
2009-05-20 04:53:23 51°15.306 2°49.425 11.2 309 11.9 102090 81
2009-05-20 04:53:27 51°15.306 2°49.403 11.5 319 11.9 102090 81
2009-05-20 04:53:32 51°15.306 2°49.375 8.9 308 11.9 102090 81
2009-05-20 04:53:36 51°15.305 2°49.353 9.2 317 11.9 102090 81
2009-05-20 04:53:43 51°15.305 2°49.315 10.8 304 11.9 102090 81
2009-05-20 04:53:47 51°15.305 2°49.294 10.6 318 11.9 102090 80
2009-05-20 04:53:52 51°15.305 2°49.267 8.3 302 11.9 102090 80
2009-05-20 04:53:57 51°15.305 2°49.239 11.4 319 11.9 102090 80
2009-05-20 04:54:03 51°15.305 2°49.207 11.4 308 11.9 102090 80
2009-05-20 04:54:07 51°15.305 2°49.185 9.2 319 11.9 102090 80
2009-05-20 04:54:11 51°15.305 2°49.164 11 308 11.9 102090 80
2009-05-20 04:54:17 51°15.304 2°49.131 10.6 319 11.9 102100 81
2009-05-20 04:54:23 51°15.304 2°49.099 11.1 307 11.9 102100 81
2009-05-20 04:54:27 51°15.304 2°49.078 11.1 318 11.9 102100 80
2009-05-20 04:54:32 51°15.304 2°49.051 11.4 308 11.9 102100 80
2009-05-20 04:54:37 51°15.304 2°49.024 11.2 318 11.9 102090 80
2009-05-20 04:54:43 51°15.304 2°48.992 11.4 280 11.9 102090 80
2009-05-20 04:54:47 51°15.303 2°48.971 10.7 318 11.9 102090 80
2009-05-20 04:54:52 51°15.303 2°48.944 8.6 303 11.9 102090 80
2009-05-20 04:54:57 51°15.302 2°48.917 10.7 318 11.9 102090 80
2009-05-20 04:55:03 51°15.301 2°48.885 11 305 11.9 102090 80
2009-05-20 04:55:07 51°15.301 2°48.863 10.2 317 11.9 102090 79
2009-05-20 04:55:13 51°15.3 2°48.831 8.5 301 11.9 102090 79
2009-05-20 04:55:18 51°15.3 2°48.804 10.9 317 11.9 102100 79
2009-05-20 04:55:23 51°15.299 2°48.777 8.4 303 11.9 102100 79
2009-05-20 04:55:27 51°15.299 2°48.755 10.3 318 11.9 102090 79
2009-05-20 04:55:31 51°15.298 2°48.734 8.3 306 11.9 102090 79
2009-05-20 04:55:38 51°15.297 2°48.696 10.1 317 11.9 102090 80
2009-05-20 04:55:43 51°15.297 2°48.669 8.4 304 11.9 102090 80
2009-05-20 04:55:47 51°15.296 2°48.648 10.1 317 11.9 102090 80
2009-05-20 04:55:52 51°15.295 2°48.621 8.5 305 11.9 102090 80
2009-05-20 04:55:57 51°15.295 2°48.594 10.3 320 11.9 102100 80
2009-05-20 04:56:03 51°15.294 2°48.562 10.9 305 11.9 102100 80
2009-05-20 04:56:08 51°15.293 2°48.535 10.4 317 11.9 102090 80
2009-05-20 04:56:12 51°15.292 2°48.514 10 305 11.9 102090 80
2009-05-20 04:56:18 51°15.292 2°48.482 8.3 317 11.9 102090 80
2009-05-20 04:56:23 51°15.291 2°48.455 9.6 301 11.9 102090 80
2009-05-20 04:56:27 51°15.29 2°48.433 10.2 317 11.9 102090 80
2009-05-20 04:56:32 51°15.29 2°48.407 8.5 304 11.9 102090 80
2009-05-20 04:56:38 51°15.288 2°48.375 9.7 317 11.9 102090 80
2009-05-20 04:56:43 51°15.288 2°48.348 10 309 11.9 102090 80
2009-05-20 04:56:47 51°15.287 2°48.327 10 320 11.9 102100 80
2009-05-20 04:56:52 51°15.286 2°48.3 9.7 307 11.9 102100 80
2009-05-20 04:56:57 51°15.285 2°48.274 7.6 320 11.9 102090 80
2009-05-20 04:57:03 51°15.284 2°48.242 9.7 307 11.9 102090 80
2009-05-20 04:57:07 51°15.283 2°48.22 7.5 319 11.9 102100 81
2009-05-20 04:57:13 51°15.282 2°48.189 9.8 308 11.9 102100 81
2009-05-20 04:57:17 51°15.28 2°48.168 7.7 320 11.9 102100 81
2009-05-20 04:57:23 51°15.279 2°48.136 7.5 302 11.9 102100 81
2009-05-20 04:57:27 51°15.278 2°48.115 8.3 319 11.9 102100 82
2009-05-20 04:57:33 51°15.276 2°48.083 8.3 310 11.9 102100 82
2009-05-20 04:57:37 51°15.276 2°48.062 10.4 319 11.9 102100 82
2009-05-20 04:57:43 51°15.274 2°48.031 8.5 301 11.9 102100 82
2009-05-20 04:57:47 51°15.273 2°48.01 10.5 317 11.9 102100 82
2009-05-20 04:57:52 51°15.273 2°47.983 10.2 307 11.9 102100 82
2009-05-20 04:57:57 51°15.272 2°47.957 8.6 319 11.9 102100 82
2009-05-20 04:58:03 51°15.271 2°47.925 10.5 307 11.9 102100 82
2009-05-20 04:58:08 51°15.27 2°47.899 10.6 322 11.9 102090 82
2009-05-20 04:58:12 51°15.269 2°47.878 8.8 303 11.9 102090 82
2009-05-20 04:58:18 51°15.268 2°47.846 9 320 11.9 102100 81
2009-05-20 04:58:23 51°15.267 2°47.82 8.5 304 11.9 102100 81
2009-05-20 04:58:27 51°15.267 2°47.799 11 320 11.9 102100 81
2009-05-20 04:58:32 51°15.266 2°47.772 10.2 306 11.9 102100 81
2009-05-20 04:58:38 51°15.264 2°47.74 8.6 320 11.9 102100 81
2009-05-20 04:58:43 51°15.264 2°47.714 8.4 282 11.9 102100 81
2009-05-20 04:58:47 51°15.263 2°47.693 8.8 321 11.9 102090 81
2009-05-20 04:58:52 51°15.262 2°47.667 11 302 11.9 102090 81
2009-05-20 04:58:57 51°15.26 2°47.64 8.7 320 11.9 102100 81
2009-05-20 04:59:03 51°15.258 2°47.609 8.7 309 11.9 102100 81
2009-05-20 04:59:08 51°15.256 2°47.582 10.5 320 11.9 102100 81
2009-05-20 04:59:13 51°15.255 2°47.556 8.9 304 11.9 102100 81
2009-05-20 04:59:17 51°15.253 2°47.535 8.6 319 11.9 102090 81
2009-05-20 04:59:23 51°15.251 2°47.503 10.3 306 11.9 102090 81
2009-05-20 04:59:27 51°15.249 2°47.482 8.6 320 11.9 102100 81
2009-05-20 04:59:33 51°15.247 2°47.45 8.4 304 11.9 102100 81
2009-05-20 04:59:37 51°15.246 2°47.429 8.1 322 11.9 102100 81
2009-05-20 04:59:43 51°15.243 2°47.398 8.6 301 11.9 102100 81
2009-05-20 04:59:47 51°15.242 2°47.377 10.9 320 11.9 102100 82
2009-05-20 04:59:53 51°15.24 2°47.345 10.4 304 11.9 102100 82
2009-05-20 04:59:57 51°15.238 2°47.324 8.5 319 11.9 102100 81
2009-05-20 05:00:03 51°15.236 2°47.292 8.3 304 11.9 102100 81
2009-05-20 05:00:07 51°15.234 2°47.271 8.2 320 11.9 102100 82
2009-05-20 05:00:12 51°15.232 2°47.244 8.5 308 11.9 102100 82
2009-05-20 05:00:18 51°15.229 2°47.213 8.2 321 11.9 102100 81
2009-05-20 05:00:23 51°15.227 2°47.187 10.5 307 11.9 102100 81
2009-05-20 05:00:27 51°15.225 2°47.166 10.4 320 12 102100 81
2009-05-20 05:00:32 51°15.223 2°47.139 10.4 307 12 102100 81
2009-05-20 05:00:38 51°15.22 2°47.108 10.3 321 11.9 102100 81
2009-05-20 05:00:43 51°15.217 2°47.081 10.3 286 11.9 102100 81
2009-05-20 05:00:47 51°15.215 2°47.06 8.2 320 11.9 102100 81
2009-05-20 05:00:52 51°15.213 2°47.034 10 308 11.9 102100 81
2009-05-20 05:00:57 51°15.211 2°47.008 8.3 321 11.9 102100 81
2009-05-20 05:01:03 51°15.208 2°46.976 8.6 303 11.9 102100 81
2009-05-20 05:01:07 51°15.207 2°46.955 10.2 320 12 102100 81
2009-05-20 05:01:13 51°15.204 2°46.923 10.4 307 12 102100 81
2009-05-20 05:01:17 51°15.202 2°46.902 10.4 319 11.9 102100 81
2009-05-20 05:01:23 51°15.199 2°46.87 10.6 304 11.9 102100 81
2009-05-20 05:01:27 51°15.198 2°46.849 10.6 319 11.9 102100 81
2009-05-20 05:01:33 51°15.195 2°46.817 8.2 310 11.9 102100 81
2009-05-20 05:01:37 51°15.193 2°46.796 8.4 319 11.9 102100 81
2009-05-20 05:01:43 51°15.19 2°46.765 10.3 301 11.9 102100 81
2009-05-20 05:01:47 51°15.189 2°46.744 10.5 320 11.9 102100 81
2009-05-20 05:01:53 51°15.186 2°46.712 10.7 305 11.9 102100 81
2009-05-20 05:01:57 51°15.184 2°46.691 8.4 319 11.9 102100 81
2009-05-20 05:02:03 51°15.182 2°46.659 8.8 301 11.9 102100 81
2009-05-20 05:02:07 51°15.18 2°46.638 10.4 322 12 102100 81
2009-05-20 05:02:12 51°15.178 2°46.611 8.1 304 12 102100 81
2009-05-20 05:02:18 51°15.176 2°46.579 8.3 320 11.9 102100 81
2009-05-20 05:02:23 51°15.174 2°46.553 8.4 301 11.9 102100 81
2009-05-20 05:02:27 51°15.172 2°46.532 10.5 319 11.9 102100 81
2009-05-20 05:02:32 51°15.17 2°46.505 8.5 304 11.9 102100 81
2009-05-20 05:02:38 51°15.168 2°46.473 8.3 321 12 102100 81
2009-05-20 05:02:43 51°15.166 2°46.447 10 286 12 102100 81
2009-05-20 05:02:47 51°15.165 2°46.425 8.2 318 12 102100 81
2009-05-20 05:02:52 51°15.163 2°46.398 10.3 304 12 102100 81
2009-05-20 05:02:58 51°15.162 2°46.367 8.5 319 12 102100 81
2009-05-20 05:03:03 51°15.161 2°46.34 8.5 306 12 102100 81
2009-05-20 05:03:07 51°15.159 2°46.318 8.2 321 12 102100 81
2009-05-20 05:03:12 51°15.158 2°46.292 10.8 302 12 102100 81
2009-05-20 05:03:17 51°15.156 2°46.265 10.3 320 12 102100 81
2009-05-20 05:03:23 51°15.155 2°46.232 8.7 306 12 102100 81
2009-05-20 05:03:27 51°15.153 2°46.211 10.5 321 12 102100 81
2009-05-20 05:03:32 51°15.152 2°46.185 8.6 304 12 102100 81
2009-05-20 05:03:37 51°15.151 2°46.157 10.3 319 12 102100 81
2009-05-20 05:03:43 51°15.149 2°46.125 8.2 306 12 102100 81
2009-05-20 05:03:47 51°15.147 2°46.104 8.2 319 12 102100 81
2009-05-20 05:03:52 51°15.146 2°46.077 9.7 308 12 102100 81
2009-05-20 05:03:57 51°15.144 2°46.05 8.5 318 12 102100 80
2009-05-20 05:04:03 51°15.142 2°46.018 10 308 12 102100 80
2009-05-20 05:04:07 51°15.141 2°45.996 8.4 319 12 102100 80
2009-05-20 05:04:12 51°15.139 2°45.969 10.3 303 12 102100 80
2009-05-20 05:04:18 51°15.137 2°45.936 10.1 320 12 102100 80
2009-05-20 05:04:23 51°15.135 2°45.909 10.2 302 12 102100 80
2009-05-20 05:04:27 51°15.134 2°45.888 10 320 12 102100 81
2009-05-20 05:04:33 51°15.132 2°45.855 9.7 307 12 102100 81
2009-05-20 05:04:39 51°15.13 2°45.823 8.2 319 12 102100 81
2009-05-20 05:04:44 51°15.129 2°45.796 9.5 281 12 102100 81
2009-05-20 05:04:50 51°15.127 2°45.764 9.6 319 12 102100 81
2009-05-20 05:04:55 51°15.125 2°45.737 9.7 303 12 102100 81
2009-05-20 05:05:01 51°15.123 2°45.704 8 320 12 102100 81
2009-05-20 05:05:06 51°15.121 2°45.677 10.4 308 12 102100 81
2009-05-20 05:05:11 51°15.12 2°45.65 8 320 12 102100 81
2009-05-20 05:05:16 51°15.118 2°45.623 8.2 304 12 102100 81
2009-05-20 05:05:21 51°15.117 2°45.596 10 319 12 102100 81
2009-05-20 05:05:27 51°15.114 2°45.563 8 309 12 102100 81
2009-05-20 05:05:31 51°15.113 2°45.542 10.2 319 12 102100 81
2009-05-20 05:05:36 51°15.111 2°45.515 10 304 12 102100 81
2009-05-20 05:05:41 51°15.11 2°45.488 8.1 320 12 102100 81
2009-05-20 05:05:47 51°15.108 2°45.455 8 304 12 102100 81
2009-05-20 05:05:51 51°15.106 2°45.434 8.3 319 12 102100 81
2009-05-20 05:05:56 51°15.105 2°45.407 9.7 306 12 102100 81
2009-05-20 05:06:01 51°15.103 2°45.38 9.8 318 12 102100 81
2009-05-20 05:06:06 51°15.101 2°45.353 9.1 306 12 102100 81
2009-05-20 05:06:11 51°15.1 2°45.326 7.8 319 12 102100 81
2009-05-20 05:06:16 51°15.098 2°45.299 7.5 303 12 102100 81
2009-05-20 05:06:21 51°15.096 2°45.272 7.9 321 12 102100 81
2009-05-20 05:06:26 51°15.095 2°45.245 8 302 12 102100 81
2009-05-20 05:06:31 51°15.093 2°45.218 9.3 320 12 102100 81
2009-05-20 05:06:36 51°15.091 2°45.191 9.3 303 12 102100 81
2009-05-20 05:06:41 51°15.089 2°45.164 9.4 319 12 102100 81
2009-05-20 05:06:46 51°15.087 2°45.137 7.5 278 12 102100 81
2009-05-20 05:06:51 51°15.085 2°45.11 7.5 319 12 102100 82
2009-05-20 05:06:56 51°15.083 2°45.083 7.8 303 12 102100 82
2009-05-20 05:07:01 51°15.081 2°45.055 7.4 319 12 102100 82
2009-05-20 05:07:06 51°15.08 2°45.028 7.6 302 12 102100 82
2009-05-20 05:07:11 51°15.078 2°45.001 7.8 319 12 102100 82
2009-05-20 05:07:16 51°15.076 2°44.974 9.5 301 12 102100 82
2009-05-20 05:07:21 51°15.073 2°44.947 9 319 12 102100 82
2009-05-20 05:07:27 51°15.071 2°44.915 9.1 304 12 102100 82
2009-05-20 05:07:31 51°15.069 2°44.893 7.6 320 12 102100 82
2009-05-20 05:07:36 51°15.066 2°44.866 9.1 310 12 102100 82
2009-05-20 05:07:41 51°15.064 2°44.839 9.2 320 12 102100 82
2009-05-20 05:07:46 51°15.062 2°44.812 9.7 309 12 102100 82
2009-05-20 05:07:51 51°15.06 2°44.785 7.7 319 12 102100 82
2009-05-20 05:07:56 51°15.058 2°44.757 7.6 302 12 102100 82
2009-05-20 05:08:01 51°15.056 2°44.73 8.2 317 12 102100 82
2009-05-20 05:08:06 51°15.055 2°44.703 8.3 306 12 102100 82
2009-05-20 05:08:11 51°15.053 2°44.676 9.7 320 12 102100 82
2009-05-20 05:08:16 51°15.051 2°44.648 10.1 301 12 102100 82
2009-05-20 05:08:21 51°15.049 2°44.621 7.9 320 12 102100 82
2009-05-20 05:08:26 51°15.047 2°44.594 9.1 305 12 102100 82
2009-05-20 05:08:31 51°15.046 2°44.567 10.1 320 12 102090 82
2009-05-20 05:08:36 51°15.044 2°44.539 8 302 12 102090 82
2009-05-20 05:08:41 51°15.043 2°44.512 8 318 12 102100 83
2009-05-20 05:08:46 51°15.041 2°44.485 8.7 279 12 102100 83
2009-05-20 05:08:51 51°15.04 2°44.457 9.4 318 12 102100 83
2009-05-20 05:08:56 51°15.038 2°44.43 7.6 304 12 102100 83
2009-05-20 05:09:01 51°15.037 2°44.402 9 318 12 102090 83
2009-05-20 05:09:06 51°15.036 2°44.375 9 304 12 102090 83
2009-05-20 05:09:11 51°15.034 2°44.347 9.2 317 12.1 102100 83
2009-05-20 05:09:16 51°15.033 2°44.32 9.4 310 12.1 102100 83
2009-05-20 05:09:21 51°15.031 2°44.293 7.6 318 12 102100 83
2009-05-20 05:09:26 51°15.029 2°44.265 9.6 303 12 102100 83
2009-05-20 05:09:31 51°15.028 2°44.238 7.9 322 12.1 102100 83
2009-05-20 05:09:36 51°15.026 2°44.211 9.4 306 12.1 102100 83
2009-05-20 05:09:41 51°15.024 2°44.183 9.8 321 12.1 102100 83
2009-05-20 05:09:47 51°15.022 2°44.151 9.6 321 12.1 102100 83
2009-05-20 05:09:51 51°15.021 2°44.129 7.5 318 12.1 102100 84
2009-05-20 05:09:56 51°15.019 2°44.102 9.6 301 12.1 102100 84
2009-05-20 05:10:01 51°15.017 2°44.075 8.1 321 12.1 102100 83
2009-05-20 05:10:06 51°15.015 2°44.048 10 304 12.1 102100 83
2009-05-20 05:10:11 51°15.013 2°44.02 10.2 320 12.1 102100 83
2009-05-20 05:10:16 51°15.011 2°43.994 9.7 304 12.1 102100 83
2009-05-20 05:10:21 51°15.009 2°43.966 9.5 318 12.1 102100 84
2009-05-20 05:10:26 51°15.007 2°43.939 9.5 305 12.1 102100 84
2009-05-20 05:10:31 51°15.005 2°43.912 7.9 319 12.1 102100 83
2009-05-20 05:10:36 51°15.003 2°43.885 7.8 307 12.1 102100 83
2009-05-20 05:10:41 51°15 2°43.858 9.6 320 12.1 102100 83
2009-05-20 05:10:46 51°14.998 2°43.831 9.4 281 12.1 102100 83
2009-05-20 05:10:51 51°14.996 2°43.805 9.6 318 12.1 102100 83
2009-05-20 05:10:56 51°14.994 2°43.778 9.3 304 12.1 102100 83
2009-05-20 05:11:01 51°14.992 2°43.751 9.5 317 12.1 102100 83
2009-05-20 05:11:06 51°14.99 2°43.725 8.4 308 12.1 102100 83
2009-05-20 05:11:11 51°14.988 2°43.698 9.7 317 12.1 102100 83
2009-05-20 05:11:16 51°14.987 2°43.671 8 309 12.1 102100 83
2009-05-20 05:11:21 51°14.985 2°43.645 8 318 12.1 102100 83
2009-05-20 05:11:26 51°14.983 2°43.618 8 307 12.1 102100 83
2009-05-20 05:11:31 51°14.981 2°43.591 8 318 12.1 102100 83
2009-05-20 05:11:36 51°14.98 2°43.565 9 301 12.1 102100 83
2009-05-20 05:11:41 51°14.978 2°43.538 7.8 317 12.1 102100 83
2009-05-20 05:11:46 51°14.977 2°43.512 8 303 12.1 102100 83
2009-05-20 05:11:51 51°14.975 2°43.485 8.1 318 12.1 102100 82
2009-05-20 05:11:56 51°14.974 2°43.458 9.8 308 12.1 102100 82
2009-05-20 05:12:01 51°14.972 2°43.431 9.7 319 12.1 102100 82
2009-05-20 05:12:06 51°14.971 2°43.405 7.8 301 12.1 102100 82
2009-05-20 05:12:11 51°14.97 2°43.378 9.6 319 12.1 102100 83
2009-05-20 05:12:16 51°14.968 2°43.352 8.8 304 12.1 102100 83
2009-05-20 05:12:21 51°14.966 2°43.325 9.3 319 12.1 102100 83
2009-05-20 05:12:27 51°14.964 2°43.293 9.9 305 12.1 102100 83
2009-05-20 05:12:31 51°14.963 2°43.272 8.2 319 12.1 102100 83
2009-05-20 05:12:36 51°14.962 2°43.246 7.9 302 12.1 102100 83
2009-05-20 05:12:41 51°14.96 2°43.219 7.9 319 12.1 102100 83
2009-05-20 05:12:46 51°14.958 2°43.192 9.8 284 12.1 102100 83
2009-05-20 05:12:51 51°14.956 2°43.165 9.8 320 12.1 102100 83
2009-05-20 05:12:56 51°14.954 2°43.139 9.3 305 12.1 102100 83
2009-05-20 05:13:01 51°14.952 2°43.112 9.6 318 12.1 102100 83
2009-05-20 05:13:06 51°14.951 2°43.086 8.1 305 12.1 102100 83
2009-05-20 05:13:11 51°14.949 2°43.06 9.3 321 12.1 102100 83
2009-05-20 05:13:15 51°14.948 2°43.038 9.8 302 12.1 102100 83
2009-05-20 05:13:20 51°14.946 2°43.012 9.6 321 12.1 102100 82
2009-05-20 05:13:25 51°14.944 2°42.985 9.3 309 12.1 102100 82
2009-05-20 05:13:30 51°14.942 2°42.959 7.8 320 12.1 102100 81
2009-05-20 05:13:35 51°14.94 2°42.933 8.1 304 12.1 102100 81
2009-05-20 05:13:40 51°14.938 2°42.906 9.5 320 12 102100 82
2009-05-20 05:13:44 51°14.937 2°42.885 9.4 306 12 102100 82
2009-05-20 05:13:49 51°14.935 2°42.858 8.5 320 12.1 102100 81
2009-05-20 05:13:54 51°14.933 2°42.832 8.1 303 12.1 102100 81
2009-05-20 05:13:59 51°14.931 2°42.806 9.9 320 12 102100 81
2009-05-20 05:14:04 51°14.93 2°42.779 9.8 303 12 102100 81
2009-05-20 05:14:09 51°14.928 2°42.753 10 321 12 102100 81
2009-05-20 05:14:14 51°14.925 2°42.727 8.7 307 12 102100 81
2009-05-20 05:14:19 51°14.923 2°42.701 8.4 321 12.1 102100 81
2009-05-20 05:14:23 51°14.921 2°42.68 9.8 307 12.1 102100 81
2009-05-20 05:14:28 51°14.919 2°42.653 9.7 320 12.1 102100 81
2009-05-20 05:14:33 51°14.916 2°42.627 9.4 307 12.1 102100 81
2009-05-20 05:14:38 51°14.914 2°42.601 9.5 319 12.1 102100 81
2009-05-20 05:14:43 51°14.912 2°42.574 7.8 285 12.1 102100 81
2009-05-20 05:14:47 51°14.911 2°42.553 9.7 320 12.1 102100 81
2009-05-20 05:14:52 51°14.909 2°42.527 9.5 303 12.1 102100 81
2009-05-20 05:14:57 51°14.907 2°42.5 8.1 318 12.1 102100 81
2009-05-20 05:15:03 51°14.905 2°42.469 7.6 311 12.1 102100 81
2009-05-20 05:15:07 51°14.904 2°42.447 9.4 319 12.1 102100 81
2009-05-20 05:15:12 51°14.902 2°42.421 9.7 304 12.1 102100 81
2009-05-20 05:15:17 51°14.9 2°42.395 8.2 321 12.1 102100 81
2009-05-20 05:15:23 51°14.898 2°42.363 9.7 308 12.1 102100 81
2009-05-20 05:15:27 51°14.896 2°42.342 9.8 320 12.1 102100 81
2009-05-20 05:15:33 51°14.894 2°42.311 9.5 310 12.1 102100 81
2009-05-20 05:15:37 51°14.893 2°42.289 7.9 319 12.1 102100 81
2009-05-20 05:15:43 51°14.891 2°42.258 9.4 306 12.1 102100 81
2009-05-20 05:15:47 51°14.89 2°42.236 7.9 321 12.1 102100 81
2009-05-20 05:15:53 51°14.888 2°42.205 7.9 304 12.1 102100 81
2009-05-20 05:15:58 51°14.886 2°42.179 9.4 320 12.1 102100 81
2009-05-20 05:16:03 51°14.885 2°42.152 9.3 302 12.1 102100 81
2009-05-20 05:16:07 51°14.883 2°42.131 8.3 322 12.1 102100 80
2009-05-20 05:16:12 51°14.881 2°42.104 9.6 304 12.1 102100 80
2009-05-20 05:16:18 51°14.879 2°42.072 9.7 320 12.1 102100 80
2009-05-20 05:16:23 51°14.878 2°42.046 7.8 309 12.1 102100 80
2009-05-20 05:16:27 51°14.876 2°42.025 9.5 320 12.1 102100 80
2009-05-20 05:16:32 51°14.875 2°41.999 9.4 305 12.1 102100 80
2009-05-20 05:16:37 51°14.873 2°41.973 9.6 321 12.1 102100 80
2009-05-20 05:16:43 51°14.871 2°41.941 9.3 280 12.1 102100 80
2009-05-20 05:16:47 51°14.869 2°41.92 9.2 320 12.1 102090 80
2009-05-20 05:16:51 51°14.868 2°41.899 9.6 303 12.1 102090 80
2009-05-20 05:16:57 51°14.866 2°41.868 9.9 321 12.1 102100 80
2009-05-20 05:17:03 51°14.864 2°41.836 7.8 304 12.1 102100 80
2009-05-20 05:17:07 51°14.863 2°41.815 8.1 322 12.1 102100 80
2009-05-20 05:17:12 51°14.861 2°41.789 7.8 321 12.1 102100 80
2009-05-20 05:17:17 51°14.859 2°41.762 7.7 321 12.2 102100 80
2009-05-20 05:17:23 51°14.857 2°41.73 8 303 12.2 102100 80
2009-05-20 05:17:28 51°14.856 2°41.704 7.5 322 12.2 102100 80
2009-05-20 05:17:33 51°14.853 2°41.678 7.6 308 12.2 102100 80
2009-05-20 05:17:38 51°14.851 2°41.652 7.8 320 12.2 102100 80
2009-05-20 05:17:43 51°14.849 2°41.626 8 307 12.2 102100 80
2009-05-20 05:17:47 51°14.848 2°41.605 8.2 321 12.2 102100 80
2009-05-20 05:17:53 51°14.846 2°41.573 7.9 303 12.2 102100 80
2009-05-20 05:17:58 51°14.844 2°41.547 8 321 12.2 102100 80
2009-05-20 05:18:03 51°14.843 2°41.521 8.8 304 12.2 102100 80
2009-05-20 05:18:07 51°14.841 2°41.5 7.7 321 12.1 102090 80
2009-05-20 05:18:12 51°14.84 2°41.474 9.3 305 12.1 102090 80
2009-05-20 05:18:18 51°14.838 2°41.442 7.5 323 12.2 102100 79
2009-05-20 05:18:23 51°14.836 2°41.416 9.4 305 12.2 102100 79
2009-05-20 05:18:27 51°14.835 2°41.395 9 322 12.1 102100 80
2009-05-20 05:18:32 51°14.833 2°41.369 7.9 301 12.1 102100 80
2009-05-20 05:18:38 51°14.832 2°41.338 8 320 12.1 102100 80
2009-05-20 05:18:43 51°14.83 2°41.311 7.8 283 12.1 102100 80
2009-05-20 05:18:47 51°14.829 2°41.29 7.8 320 12.2 102100 80
2009-05-20 05:18:52 51°14.827 2°41.264 7.7 301 12.2 102100 80
2009-05-20 05:18:58 51°14.825 2°41.233 8 319 12.2 102100 80
2009-05-20 05:19:03 51°14.824 2°41.207 9.1 301 12.2 102100 80
2009-05-20 05:19:08 51°14.822 2°41.181 7.7 322 12.2 102090 80
2009-05-20 05:19:12 51°14.821 2°41.16 7.9 307 12.2 102090 80
2009-05-20 05:19:18 51°14.819 2°41.129 8.1 320 12.2 102100 80
2009-05-20 05:19:23 51°14.817 2°41.103 8 310 12.2 102100 80
2009-05-20 05:19:28 51°14.816 2°41.077 9.6 319 12.2 102100 80
2009-05-20 05:19:32 51°14.815 2°41.056 7.9 305 12.2 102100 80
2009-05-20 05:19:38 51°14.813 2°41.025 8.2 320 12.2 102100 80
2009-05-20 05:19:43 51°14.811 2°40.999 7.8 306 12.2 102100 80
2009-05-20 05:19:47 51°14.81 2°40.978 8.2 322 12.2 102090 80
2009-05-20 05:19:53 51°14.805 2°40.947 9.2 322 12.2 102090 80
2009-05-20 05:19:58 51°14.802 2°40.922 8 323 12.2 102090 80
2009-05-20 05:20:03 51°14.798 2°40.896 8 304 12.2 102090 80
2009-05-20 05:20:07 51°14.794 2°40.876 8.3 323 12.2 102090 80
2009-05-20 05:20:13 51°14.789 2°40.846 8.1 301 12.2 102090 80
2009-05-20 05:20:18 51°14.784 2°40.821 9.4 323 12.2 102090 80
2009-05-20 05:20:23 51°14.779 2°40.796 8.2 304 12.2 102090 80
2009-05-20 05:20:27 51°14.774 2°40.776 7.9 323 12.2 102090 80
2009-05-20 05:20:32 51°14.769 2°40.751 8.4 307 12.2 102090 80
2009-05-20 05:20:38 51°14.762 2°40.722 8.1 326 12.2 102100 80
2009-05-20 05:20:43 51°14.757 2°40.697 9.6 278 12.2 102100 80
2009-05-20 05:20:47 51°14.752 2°40.677 9.2 324 12.2 102090 80
2009-05-20 05:20:52 51°14.747 2°40.652 7.9 307 12.2 102090 80
2009-05-20 05:20:58 51°14.739 2°40.623 8.1 323 12.2 102090 81
2009-05-20 05:21:03 51°14.734 2°40.598 9.6 323 12.2 102090 81
2009-05-20 05:21:07 51°14.729 2°40.578 8.2 323 12.2 102100 81
2009-05-20 05:21:11 51°14.725 2°40.558 9.6 303 12.2 102100 81
2009-05-20 05:21:17 51°14.718 2°40.529 9.8 323 12.2 102100 81
2009-05-20 05:21:23 51°14.711 2°40.499 10 302 12.2 102100 81
2009-05-20 05:21:27 51°14.706 2°40.479 9.8 323 12.2 102090 81
2009-05-20 05:21:32 51°14.701 2°40.455 9.8 303 12.2 102090 81
2009-05-20 05:21:37 51°14.695 2°40.43 8.1 323 12.2 102090 81
2009-05-20 05:21:43 51°14.689 2°40.4 9.9 280 12.2 102090 81
2009-05-20 05:21:47 51°14.684 2°40.38 8.3 323 12.2 102100 81
2009-05-20 05:21:52 51°14.679 2°40.355 9.7 306 12.2 102100 81
2009-05-20 05:21:58 51°14.672 2°40.325 10.1 323 12.2 102100 81
2009-05-20 05:22:03 51°14.667 2°40.301 9.6 324 12.2 102100 81
2009-05-20 05:22:07 51°14.662 2°40.281 9.6 323 12.2 102100 81
2009-05-20 05:22:13 51°14.656 2°40.251 8.5 307 12.2 102100 81
2009-05-20 05:22:17 51°14.652 2°40.231 9.4 322 12.2 102100 81
2009-05-20 05:22:23 51°14.645 2°40.201 9.9 324 12.2 102100 81
2009-05-20 05:22:27 51°14.641 2°40.181 9.6 324 12.2 102100 81
2009-05-20 05:22:33 51°14.634 2°40.152 9.6 306 12.2 102100 81
2009-05-20 05:22:38 51°14.629 2°40.127 8.4 323 12.2 102100 81
2009-05-20 05:22:43 51°14.624 2°40.102 9.5 303 12.2 102100 81
2009-05-20 05:22:47 51°14.619 2°40.082 9.5 323 12.2 102100 82
2009-05-20 05:22:51 51°14.614 2°40.062 8.4 303 12.2 102100 82
2009-05-20 05:22:58 51°14.606 2°40.028 8.4 324 12.2 102100 82
2009-05-20 05:23:03 51°14.6 2°40.004 8.5 304 12.2 102100 82
2009-05-20 05:23:07 51°14.596 2°39.984 9.7 323 12.2 102100 82
2009-05-20 05:23:12 51°14.59 2°39.959 9.9 323 12.2 102100 82
2009-05-20 05:23:17 51°14.584 2°39.935 8.7 323 12.2 102100 82
2009-05-20 05:23:23 51°14.577 2°39.905 10.1 324 12.2 102100 82
2009-05-20 05:23:27 51°14.573 2°39.885 9.6 322 12.2 102100 82
2009-05-20 05:23:33 51°14.567 2°39.855 9.8 303 12.2 102100 82
2009-05-20 05:23:37 51°14.562 2°39.835 9.7 323 12.2 102100 82
2009-05-20 05:23:43 51°14.556 2°39.805 9.6 278 12.2 102100 82
2009-05-20 05:23:47 51°14.552 2°39.785 10.1 322 12.2 102100 82
2009-05-20 05:23:53 51°14.545 2°39.755 8.7 303 12.2 102100 82
2009-05-20 05:23:57 51°14.541 2°39.735 10 322 12.2 102100 82
2009-05-20 05:24:03 51°14.534 2°39.705 9.7 306 12.2 102100 82
2009-05-20 05:24:07 51°14.53 2°39.686 9.7 323 12.2 102100 82
2009-05-20 05:24:13 51°14.523 2°39.656 9.9 304 12.2 102100 82
2009-05-20 05:24:17 51°14.519 2°39.636 9.9 323 12.2 102100 83
2009-05-20 05:24:23 51°14.512 2°39.606 10.3 303 12.2 102100 83
2009-05-20 05:24:28 51°14.507 2°39.582 9.9 323 12.2 102100 83
2009-05-20 05:24:33 51°14.501 2°39.557 10.1 323 12.2 102100 83
2009-05-20 05:24:38 51°14.495 2°39.532 8.5 323 12.2 102100 83
2009-05-20 05:24:43 51°14.489 2°39.507 8.6 323 12.2 102100 83
2009-05-20 05:24:47 51°14.485 2°39.487 8.9 324 12.2 102100 83
2009-05-20 05:24:53 51°14.478 2°39.457 8.7 324 12.2 102100 83
2009-05-20 05:24:58 51°14.473 2°39.432 10.1 323 12.2 102100 83
2009-05-20 05:25:03 51°14.467 2°39.407 8.7 301 12.2 102100 83
2009-05-20 05:25:07 51°14.463 2°39.387 8.7 323 12.2 102100 83
2009-05-20 05:25:12 51°14.457 2°39.363 10.4 323 12.2 102100 83
2009-05-20 05:25:18 51°14.45 2°39.333 8.9 322 12.2 102100 83
2009-05-20 05:25:23 51°14.444 2°39.308 10.6 305 12.2 102100 83
2009-05-20 05:25:27 51°14.44 2°39.288 10.2 323 12.2 102100 83
2009-05-20 05:25:32 51°14.434 2°39.263 8.8 303 12.2 102100 83
2009-05-20 05:25:38 51°14.428 2°39.233 10.1 323 12.2 102100 83
2009-05-20 05:25:43 51°14.422 2°39.208 10.3 284 12.2 102100 83
2009-05-20 05:25:48 51°14.417 2°39.183 9.2 325 12.2 102100 82
2009-05-20 05:25:52 51°14.412 2°39.163 10.6 303 12.2 102100 82
2009-05-20 05:25:58 51°14.406 2°39.133 10.5 323 12.2 102100 82
2009-05-20 05:26:03 51°14.4 2°39.108 10.5 323 12.2 102100 82
2009-05-20 05:26:08 51°14.394 2°39.082 10.3 323 12.2 102100 83